Location: Chisholm
(54.9102°N, 114.1701°W)
Time: 10:58:17
(UTC+00:00)

N. Korean satellite - Pass Details

Date: 30 November 2021
Orbit: 447 x 491 km, 97.3° (Epoch: 24 January)

Event Time Altitude Azimuth Distance (km) Brightness Sun altitude
Rises 00:10:31 0° 178° (S) 2,542 10.6 -7.5°
Reaches altitude 10° 00:12:38 10° 184° (S) 1,660 9.7 -7.8°
Maximum altitude 00:16:06 48° 260° (W) 636 7.7 -8.2°
Drops below altitude 10° 00:19:32 10° 336° (NNW) 1,647 9.2 -8.7°
Sets 00:21:39 0° 342° (NNW) 2,521 10.1 -8.9°
